sat.trackr.live / text

‹ back to catalog

STARLINK-33995

NORAD 63706 · 2025-087K

PAYLOAD ACTIVE UNKNOWN

§ Identity

Operator
Country
US
Launch date
2025-04-28
Launch site
AFWTR
Launch vehicle
Mass (kg)
RCS (m²)

Purposes: comms

External: N2YO · Heavens-Above · Gunter

§ Orbital elements

Epoch: 2026-09-20T13:09:44.617248Z

Period
93.85 min
Inclination
53.1618°
Eccentricity
0.0001106
Mean motion
15.34408241 rev/d
Perigee alt
461.9 km
Apogee alt
463.4 km
Semi-major
6,840.8 km
B*
4.2387e-4
RAAN
33.7283°
Arg perigee
77.6647°
Mean anomaly
282.4480°
Rev number
7,904

§ Raw data

STARLINK-339951 63706U 25087K   26263.54843307  .00013975  00000+0  42387-3 0  99982 63706  53.1618  33.7283 0001106  77.6647 282.4480 15.34408241 79049

JSON: /api/v1/satellites/63706 · /tle

For live sub-satellite position, see the globe view (requires WebGL).

§ Visibility from observer

Set your observer location to see the next 7 days of passes ≥ 10°. The values pass through the URL so the page stays shareable.

No JS? Fill the form by hand. The geolocation button needs JavaScript.